User: anonymous   Login
Location: Unspecified
(0.0000°N, 0.0000°E)
Time: 14:44:38
(UTC+00:00)
Language:

Safir 2 - Orbit

View from above orbital plane
View from above orbital plane
View from above satellite
View from above satellite

Ground track
Ground track

The orbit data is extracted from the following two-line orbital elements,

1 25399U 98043F   17202.58849487 -.00000025 +00000-0 +78009-5 0  9994
2 25399 098.5772 145.8812 0002118 144.0748 216.0574 14.24586568988938
Epoch (UTC): 21 July 2017 14:07:25
Eccentricity: 0.0002118
inclination: 98.5772°
perigee height: 808 km
apogee height: 811 km
right ascension of ascending node: 145.8812°
argument of perigee: 144.0748°
revolutions per day: 14.24586568
mean anomaly at epoch: 216.0574°
orbit number at epoch: 98893

The dashed part of the orbit path shows where the satellite is in the earth's shadow,  

DLR